Regional Weather Roundup
Issued by NWS

Home | Current Version | Previous Version | Graphics & Text | Print | Product List | Glossary On
Versions: 1 2 3 4 5 6 7 8 9 10 11 12 13 14 15 16 17 18 19 20 21 22 23 24 25 26 27 28 29 30 31 32 33 34 35 36 37 38 39 40 41 42 43 44 45 46 47 48 49 50
249
ASUS43 KDMX 310408
RWRIA

WEATHER ROUNDUP FOR IOWA
NATIONAL WEATHER SERVICE DES MOINES IA
1100 PM CDT TUE AUG 30 2016

NOTE: "FAIR" INDICATES FEW OR NO CLOUDS BELOW 12,000 FEET WITH NO
SIGNIFICANT WEATHER AND/OR OBSTRUCTIONS TO VISIBILITY.

* - THESE STATIONS ARE NOT NWS STATIONS...THUS NOT UNDER NWS
QUALITY CONTROL.  THEY ALSO DO NOT REPORT WEATHER SUCH
AS PRECIPITATION OR FOG.

IAZ001>003-012>014-020>022-031>034-043>046-310500-
   NORTHWEST IOWA

CITY           SKY/WX    TMP DP  RH WIND       PRES   REMARKS
CARROLL *      MOCLDY    66  66 100 N3        30.17S
CHEROKEE *     PTCLDY    66  66 100 N3        30.19S
DENISON *      CLOUDY    68  68 100 N5        30.16S
LE MARS *      PTCLDY    66  66 100 CALM      30.20S
ORANGE CITY *  MOCLDY    70  66  88 E5        30.20S
SHELDON *      MOCLDY    63  63 100 NE6       30.19S
SIOUX CITY     PTCLDY    73  68  84 E6        30.18S
SPENCER        CLOUDY    63  60  90 NE3       30.19F
STORM LAKE *   PTCLDY    66  64  94 CALM      30.20S
$$

IAZ055>058-069>071-079>083-090>094-310500-
   SOUTHWEST IOWA

CITY           SKY/WX    TMP DP  RH WIND       PRES   REMARKS
ATLANTIC *     MOCLDY    72  70  94 CALM      30.16S
AUDUBON *      MOCLDY    70  66  88 N3        30.18S
CLARINDA *       N/A     72  72 100 MISG        N/A
COUNCIL BLFS * CLOUDY    72  70  94 N3        30.17S
CRESTON *      CLOUDY    72  70  94 N7        30.16F
HARLAN  *      CLOUDY    70  70 100 CALM      30.21R
LAMONI         CLOUDY    72  70  93 N3        30.14S
RED OAK *      CLOUDY    72  70  94 CALM      30.16S
SHENANDOAH *   CLOUDY    72  70  94 CALM      30.16S
$$

IAZ047>049-059>061-072>074-084-310500-
   CENTRAL IOWA

CITY           SKY/WX    TMP DP  RH WIND       PRES   REMARKS
AMES           CLOUDY    68  68 100 CALM      30.15S
ANKENY *         N/A    N/A N/A N/A MISG        N/A
BOONE *          N/A     68  66  94 N5        30.15S
CHARITON *       N/A     72  70  94 MISG      30.13S
DES MOINES     CLOUDY    76  70  82 N7        30.14R
GRINNELL*      CLOUDY    70  67  92 NW5       30.15S
KNOXVILLE *    CLOUDY    75  70  83 N3        30.12S
MARSHALLTOWN   CLEAR     65  65 100 NW7       30.14S
NEWTON *       CLOUDY    73  70  88 N8        30.13S
PELLA *        CLOUDY    73  70  92 CALM      30.14S
PERRY *          N/A     70  69  97 N5        30.16S
$$

IAZ004>006-015-016-023>025-035-036-310500-
   NORTH CENTRAL IOWA

CITY           SKY/WX    TMP DP  RH WIND       PRES   REMARKS
ALGONA *       PTCLDY    64  63  94 CALM      30.18F
ESTHERVILLE    CLOUDY    60  60 100 N5        30.18F
FORT DODGE *   PTCLDY    66  63  88 N3        30.18S
MASON CITY     CLEAR     61  58  90 N6        30.19R
FOREST CITY *    N/A     61  59  94 N6        30.17F
WEBSTER CITY * CLEAR     63  63 100 N6        30.15S
IOWA FALLS *     N/A     66  62  87 N5        30.17S
$$

IAZ007>011-017>019-026>030-037>042-050>054-066-310500-
   NORTHEAST IOWA

CITY           SKY/WX    TMP DP  RH WIND       PRES   REMARKS
CEDAR RAPIDS   CLEAR     70  70 100 NW6       30.11R
CHARLES CITY * CLEAR     63  63 100 N6        30.16S
CLINTON *      MOCLDY    71  69  93 NW6       30.09S
DECORAH *      CLEAR     66  63  88 N7        30.14S
DUBUQUE        CLEAR     69  67  93 N7        30.11S
MONTICELLO *   CLEAR     68  68 100 CALM      30.11R
OELWEIN *      CLEAR     64  63  94 N6        30.15R
WATERLOO       CLEAR     65  62  90 N6        30.13R
$$

IAZ064-065-067-068-078-310500-
   EAST CENTRAL IOWA

CITY           SKY/WX    TMP DP  RH WIND       PRES   REMARKS
DAVENPORT      CLOUDY    71  70  96 CALM      30.09S
IOWA CITY      CLOUDY    74  71  91 NW6       30.11S
MT. PLEASANT * MOCLDY    75  74  97 CALM      30.10S
QUAD CITIES    MOCLDY    73  69  87 CALM      30.08S
$$

IAZ062-063-075>077-085>089-095>099-310500-
   SOUTHEAST IOWA

CITY           SKY/WX    TMP DP  RH WIND       PRES   REMARKS
BURLINGTON     CLEAR     72  71  97 NW6       30.09S
FAIRFIELD *    CLOUDY    72  70  94 NW6       30.11S
FORT MADISON * PTCLDY    72  72 100 CALM      30.11R
KEOKUK *       MOCLDY    72  70  94 CALM      30.09S
OSKALOOSA *      N/A     72  71  97 N3        30.12S
CENTERVILLE *    N/A     72  68  88 CALM      30.14S
OTTUMWA        CLOUDY    72  71  97 NW5       30.12S
WASHINGTON *   CLEAR     73  72  94 NW5       30.11S
$$

ABBREVIATIONS USED IN REMARKS
   TC - TEMPERATURES IN CELSIUS
  WCI - WIND CHILL INDEX
   HX - HEAT INDEX
  VSB - VISIBILITY
$$





USA.gov is the U.S. government's official web portal to all federal, state and local government web resources and services.